[[{"header":{"parameterUnit":"m.s-1","parameterCategory":1,"la1":30.2991,"la2":30.254,"lo1":-89.0895,"lo2":-89.0444,"dy":0.0017,"dx":0.0017,"nx":28,"ny":28,"refTime":"2024-08-22T09:00:00:Z","depth":0,"parameterNumber":2,"parameterNumberName":"U-component_of_WINDS"},"data":[0,0,0,0,0,0,0,0,0,0,0,0,0,0,0,0,0,0,0,0,0,0,0,0,0,0,0,0,0,0,0,0,0,0,0,0,0,0,0,0,0,0,0,0,0,0,0,0,0,0,0,0,0,0,0,0,0,0,0.4387,0.4387,0,0.4383,0.4383,0.4383,0.4365,0.4365,0.4365,0.4364,0.4361,0.4362,0.4362,0,0,0,0,0,0,0,0,0,0,0,0,0,0.4382,0.4382,0.4387,0.4387,0.4387,0.4383,0.4383,0.4383,0.4365,0.4365,0.4364,0.4364,0.4361,0.4361,0.4362,0,0,0,0,0,0,0,0,0,0,0,0,0,0.4381,0.4382,0.4387,0.4378,0.4377,0.4383,0.4383,0.4383,0.4366,0.4365,0.4364,0.4364,0.4361,0.4361,0.4362,0.4377,0,0,0.4363,0.4364,0,0,0,0,0,0,0,0,0.4381,0.4382,0.4379,0.4379,0.4378,0.4374,0.438,0.4381,0.4366,0.437,0.4364,0.4363,0.4366,0.4366,0.4367,0.4377,0.4377,0.4363,0.4364,0.4364,0.4364,0,0,0,0,0,0,0,0.4382,0.4382,0.4386,0.4379,0.4378,0.4374,0.4374,0.438,0.4372,0.437,0.4368,0.4368,0.4366,0.4366,0.4367,0.4377,0.4363,0.4364,0.4364,0.4364,0.44,0.44,0,0,0,0,0,0,0.4383,0.4382,0.4386,0.4386,0.4378,0.4375,0.4374,0.4376,0.4371,0.437,0.4368,0.4367,0.4366,0.4366,0.4366,0.4384,0.4364,0.4364,0.4365,0.4399,0.44,0.4401,0,0,0,0,0,0,0.4383,0.4383,0.4386,0.4383,0.4383,0.4376,0.4378,0.4376,0.4377,0.4371,0.4369,0.4371,0.4365,0.4366,0.4375,0.4383,0.4364,0.4365,0.4398,0.4399,0.44,0.4418,0,0,0,0,0,0,0.4383,0.4383,0.4389,0.4384,0.4384,0.4394,0.4378,0.4376,0.4378,0.4376,0.4372,0.4371,0.4365,0.4374,0.4375,0.4383,0.4365,0.4397,0.4399,0.44,0.4417,0.442,0.4422,0,0,0,0,0,0.4382,0.4394,0.4389,0.4389,0.439,0.4394,0.4394,0.4386,0.4378,0.4384,0.438,0.4371,0.4382,0.4375,0.4376,0.4385,0.4397,0.4398,0.44,0.4416,0.4419,0.4422,0,0,0,0,0,0,0.4401,0.4393,0.4387,0.4398,0.4397,0.4391,0.4398,0.439,0.4392,0.439,0.4381,0.438,0.439,0.4389,0.4381,0.4399,0.4388,0.439,0.44,0.4403,0.4406,0.4406,0.4366,0,0,0,0,0,0.4406,0.4409,0.4403,0.4413,0.4413,0.4405,0.4407,0.4401,0.44,0.4399,0.4396,0.4396,0.4399,0.4401,0.4404,0.4417,0.4416,0.4424,0.4426,0.4429,0.443,0.4437,0.444,0.4405,0.4405,0.4405,0,0,0.4416,0.4413,0.4416,0.4416,0.4415,0.4419,0.4405,0.441,0.4413,0.44,0.4408,0.4406,0.4405,0.4416,0.442,0.4414,0.444,0.4431,0.4432,0.4432,0.4439,0.4442,0.4445,0.4406,0.4406,0.4406,0,0,0.4438,0.4436,0.4443,0.4442,0.444,0.4435,0.4437,0.4433,0.4431,0.4439,0.4429,0.4433,0.4439,0.4438,0.4439,0.4461,0.4453,0.4463,0.4476,0.4483,0.4486,0.4488,0.4495,0.4498,0.4464,0.4464,0.4464,0,0.4451,0.4457,0.4449,0.4454,0.4455,0.4443,0.4451,0.445,0.445,0.445,0.4444,0.4451,0.445,0.446,0.4466,0.4467,0.4469,0.4462,0.4486,0.4488,0.449,0.4497,0.45,0.4465,0.4465,0.4465,0.4465,0,0.4473,0.4478,0.4484,0.4483,0.4485,0.4491,0.4485,0.4487,0.4482,0.4478,0.4486,0.4484,0.4486,0.4488,0.4483,0.4498,0.4495,0.4487,0.4476,0.4495,0.4501,0.4504,0.4467,0.4466,0.4466,0.4466,0,0,0.4505,0.4499,0.4502,0.4501,0.4498,0.4502,0.4508,0.451,0.4512,0.4513,0.4518,0.4524,0.4517,0.4517,0.4512,0.4518,0.4535,0.451,0.451,0.4514,0.4552,0.4556,0.456,0.4531,0.4531,0.4532,0.4551,0,0.4524,0.4535,0.4528,0.4539,0.4543,0.4532,0.4538,0.4538,0.4535,0.4538,0.4535,0.4538,0.4529,0.453,0.4535,0.4532,0.4543,0.4531,0.4535,0.4536,0.4535,0.4563,0.4568,0.4587,0.4554,0.4554,0.4555,0,0.4548,0.4549,0.4561,0.4557,0.4559,0.4564,0.4565,0.4568,0.4567,0.4565,0.4566,0.4559,0.4566,0.4556,0.4565,0.4557,0.4559,0.4558,0.4558,0.4558,0.4545,0.4562,0.4592,0.4595,0.4559,0.4558,0.4558,0,0.4569,0.4573,0.458,0.458,0.4577,0.4581,0.458,0.4578,0.458,0.4581,0.4582,0.4585,0.4586,0.4588,0.4583,0.4575,0.4593,0.4582,0.459,0.4591,0.4593,0.4593,0.4624,0.4597,0.4597,0.4596,0.4596,0,0.4591,0.4598,0.459,0.4594,0.4602,0.4595,0.4603,0.4601,0.46,0.4605,0.4596,0.4601,0.4594,0.4598,0.4594,0.4602,0.4603,0.4601,0.4599,0.4601,0.4601,0.4601,0.4599,0.4597,0.4597,0.4597,0.4597,0,0.4614,0.4609,0.4616,0.4613,0.4612,0.4618,0.4615,0.4619,0.4616,0.4622,0.4622,0.4618,0.4622,0.4617,0.4621,0.4618,0.4629,0.4626,0.4629,0.4628,0.4636,0.4635,0.4667,0.4671,0.4642,0.4643,0.4643,0,0.4628,0.4633,0.463,0.4632,0.4631,0.4635,0.4636,0.463,0.4632,0.4632,0.4636,0.464,0.4642,0.4649,0.4646,0.4649,0.4646,0.4657,0.4646,0.4647,0.4645,0.4644,0.4645,0.4659,0.4659,0.4659,0.4659,0,0.4653,0.465,0.4652,0.4653,0.4655,0.4656,0.4657,0.4659,0.4652,0.4655,0.4659,0.4661,0.4665,0.4668,0.467,0.467,0.4664,0.4663,0.4665,0.4666,0.4667,0.4666,0.4634,0.4662,0.4662,0.4661,0.4661,0.4661,0.4671,0.4675,0.4673,0.4676,0.4676,0.4677,0.468,0.4678,0.4681,0.4683,0.4679,0.4684,0.4684,0.4686,0.4687,0.4691,0.4686,0.4689,0.469,0.4691,0.4691,0.4667,0.4691,0.4691,0.4691,0.4691,0.4691,0,0.4694,0.4693,0.4696,0.4696,0.4699,0.4693,0.4693,0.4695,0.47,0.47,0.4702,0.4707,0.4711,0.4708,0.4711,0.4715,0.4712,0.4716,0.4715,0.4715,0.4696,0.4693,0.4718,0.4718,0.4718,0.4718,0.4718,0.4718,0.4706,0.4713,0.471,0.4717,0.4716,0.472,0.4721,0.4722,0.4722,0.4727,0.473,0.4728,0.4728,0.4731,0.4734,0.4733,0.4735,0.4739,0.4737,0.4719,0.4716,0.4714,0.4711,0.474,0.474,0.4756,0.4756,0.4756]},{"header":{"parameterUnit":"m.s-1","parameterCategory":1,"la1":30.2991,"la2":30.254,"lo1":-89.0895,"lo2":-89.0444,"dy":0.0017,"dx":0.0017,"nx":28,"ny":28,"refTime":"2024-08-22T09:00:00:Z","depth":0,"parameterNumber":3,"parameterNumberName":"V-component_of_WINDS"},"data":[0,0,0,0,0,0,0,0,0,0,0,0,0,0,0,0,0,0,0,0,0,0,0,0,0,0,0,0,0,0,0,0,0,0,0,0,0,0,0,0,0,0,0,0,0,0,0,0,0,0,0,0,0,0,0,0,0,0,-1.1073,-1.1074,0,-1.1155,-1.1156,-1.1157,-1.123,-1.1231,-1.1232,-1.1233,-1.1317,-1.1318,-1.132,0,0,0,0,0,0,0,0,0,0,0,0,0,-1.0983,-1.0984,-1.1073,-1.1074,-1.1075,-1.1155,-1.1156,-1.1157,-1.123,-1.1231,-1.1232,-1.1233,-1.1317,-1.1318,-1.132,0,0,0,0,0,0,0,0,0,0,0,0,0,-1.1039,-1.0984,-1.1073,-1.1121,-1.1127,-1.1154,-1.1156,-1.1157,-1.123,-1.1231,-1.1233,-1.1234,-1.1316,-1.1318,-1.132,-1.1307,0,0,-1.1327,-1.1328,0,0,0,0,0,0,0,0,-1.1036,-1.1042,-1.1113,-1.1118,-1.1124,-1.1184,-1.1155,-1.1207,-1.123,-1.1191,-1.1233,-1.1234,-1.1272,-1.1277,-1.129,-1.1311,-1.1314,-1.1327,-1.1328,-1.1329,-1.133,0,0,0,0,0,0,0,-1.1032,-1.1039,-1.1106,-1.1114,-1.1121,-1.114,-1.1149,-1.1165,-1.1223,-1.1194,-1.12,-1.1208,-1.1275,-1.1288,-1.1292,-1.1316,-1.1327,-1.1329,-1.133,-1.1331,-1.133,-1.1329,0,0,0,0,0,0,-1.102,-1.1035,-1.1103,-1.1108,-1.1082,-1.114,-1.1151,-1.1163,-1.1223,-1.1233,-1.1207,-1.1211,-1.1283,-1.129,-1.1296,-1.1284,-1.1329,-1.1331,-1.1332,-1.1331,-1.133,-1.1328,0,0,0,0,0,0,-1.1018,-1.1025,-1.11,-1.1073,-1.1084,-1.114,-1.1154,-1.1164,-1.1177,-1.1233,-1.1243,-1.1209,-1.1285,-1.1293,-1.1303,-1.1287,-1.1332,-1.1334,-1.1333,-1.1331,-1.1329,-1.1259,0,0,0,0,0,0,-1.1015,-1.1024,-1.1019,-1.1073,-1.1085,-1.1105,-1.1153,-1.1165,-1.118,-1.1187,-1.1238,-1.1247,-1.1286,-1.13,-1.1306,-1.1291,-1.1336,-1.1335,-1.1332,-1.133,-1.1263,-1.1255,-1.1248,0,0,0,0,0,-1.1012,-1.0996,-1.1019,-1.1026,-1.108,-1.1104,-1.1112,-1.1156,-1.1179,-1.1174,-1.121,-1.1246,-1.1289,-1.13,-1.1307,-1.1293,-1.1336,-1.1333,-1.133,-1.1266,-1.1257,-1.1248,0,0,0,0,0,0,-1.094,-1.1004,-1.1029,-1.1031,-1.1062,-1.1117,-1.1112,-1.1145,-1.117,-1.1175,-1.123,-1.1241,-1.1245,-1.1271,-1.1283,-1.1284,-1.1317,-1.1315,-1.1266,-1.1258,-1.125,-1.1243,-1.1337,0,0,0,0,0,-1.0924,-1.0938,-1.0994,-1.099,-1.1004,-1.1055,-1.1068,-1.11,-1.1134,-1.1147,-1.1184,-1.1215,-1.1236,-1.1249,-1.1271,-1.1268,-1.128,-1.1262,-1.1255,-1.1248,-1.1246,-1.1246,-1.1238,-1.1319,-1.1319,-1.1319,0,0,-1.0892,-1.0929,-1.0934,-1.0977,-1.1004,-1.1017,-1.1066,-1.1078,-1.1088,-1.1149,-1.1161,-1.1189,-1.1229,-1.1232,-1.1236,-1.1254,-1.1226,-1.1244,-1.1239,-1.124,-1.1242,-1.1234,-1.1227,-1.1317,-1.1317,-1.1318,0,0,-1.084,-1.0869,-1.0869,-1.0896,-1.0937,-1.0971,-1.0971,-1.1022,-1.1042,-1.1056,-1.1101,-1.1115,-1.115,-1.1176,-1.1194,-1.1153,-1.1186,-1.1159,-1.1119,-1.1119,-1.1112,-1.1107,-1.1091,-1.1085,-1.1156,-1.1156,-1.1156,0,-1.0794,-1.0816,-1.0865,-1.0874,-1.0891,-1.0947,-1.0948,-1.0971,-1.1017,-1.1028,-1.1048,-1.1093,-1.1124,-1.1134,-1.1124,-1.1137,-1.1138,-1.1152,-1.1109,-1.1104,-1.11,-1.1086,-1.108,-1.1152,-1.1153,-1.1153,-1.1154,0,-1.0758,-1.0772,-1.0767,-1.081,-1.0827,-1.0832,-1.0882,-1.0894,-1.0925,-1.0957,-1.097,-1.1009,-1.104,-1.1045,-1.1076,-1.106,-1.107,-1.1099,-1.1133,-1.1088,-1.1075,-1.107,-1.1147,-1.1148,-1.115,-1.1151,0,0,-1.0661,-1.0731,-1.0728,-1.0749,-1.0799,-1.0811,-1.0819,-1.0849,-1.0857,-1.0888,-1.0896,-1.0924,-1.0951,-1.0972,-1.1006,-1.1006,-1.097,-1.1035,-1.1037,-1.102,-1.0955,-1.0931,-1.0924,-1.0993,-1.0993,-1.0992,-1.0951,0,-1.0616,-1.0632,-1.0677,-1.0679,-1.0693,-1.0747,-1.0754,-1.0786,-1.0817,-1.0834,-1.0869,-1.0888,-1.0922,-1.0935,-1.0937,-1.0974,-1.0957,-1.0978,-1.1001,-1.1001,-1.0987,-1.0918,-1.0894,-1.0853,-1.0947,-1.0946,-1.0945,0,-1.0565,-1.0591,-1.0595,-1.0645,-1.0652,-1.0657,-1.0689,-1.0704,-1.0742,-1.0764,-1.0787,-1.0825,-1.0837,-1.087,-1.0887,-1.09,-1.0912,-1.0932,-1.0932,-1.0934,-1.0969,-1.0917,-1.0841,-1.0834,-1.0938,-1.0939,-1.0939,0,-1.0492,-1.0529,-1.0536,-1.0552,-1.061,-1.0612,-1.0637,-1.0676,-1.0691,-1.0719,-1.073,-1.0759,-1.0775,-1.0797,-1.0842,-1.0862,-1.0854,-1.0891,-1.0873,-1.0871,-1.0867,-1.0866,-1.079,-1.0877,-1.0878,-1.0878,-1.0878,0,-1.0436,-1.0436,-1.0504,-1.0508,-1.051,-1.0562,-1.0563,-1.0593,-1.0627,-1.0638,-1.0688,-1.0697,-1.0757,-1.0774,-1.081,-1.0818,-1.0826,-1.0844,-1.0853,-1.0839,-1.0836,-1.0846,-1.085,-1.0876,-1.0876,-1.0877,-1.0877,0,-1.0354,-1.04,-1.0411,-1.0466,-1.0479,-1.0478,-1.0525,-1.0531,-1.0566,-1.058,-1.0586,-1.064,-1.0663,-1.0711,-1.0747,-1.0771,-1.077,-1.0788,-1.0757,-1.0762,-1.0741,-1.0742,-1.0668,-1.066,-1.0753,-1.0752,-1.0751,0,-1.0314,-1.0315,-1.037,-1.0381,-1.0403,-1.042,-1.0437,-1.0489,-1.0504,-1.0547,-1.0548,-1.0574,-1.0598,-1.0631,-1.0674,-1.0702,-1.072,-1.0692,-1.0724,-1.0709,-1.0718,-1.0717,-1.0717,-1.0684,-1.0683,-1.0682,-1.0681,0,-1.0239,-1.0261,-1.0282,-1.0311,-1.0329,-1.0354,-1.0383,-1.0389,-1.0448,-1.0463,-1.0486,-1.0504,-1.0541,-1.0566,-1.06,-1.0627,-1.0663,-1.0671,-1.0668,-1.0652,-1.0633,-1.0642,-1.0735,-1.0672,-1.0673,-1.0673,-1.0674,-1.0674,-1.0176,-1.0179,-1.0218,-1.024,-1.0267,-1.0292,-1.0301,-1.0337,-1.0357,-1.039,-1.0421,-1.0441,-1.048,-1.0529,-1.0553,-1.057,-1.0589,-1.0585,-1.0584,-1.0581,-1.0575,-1.0632,-1.0577,-1.0577,-1.0578,-1.0578,-1.0578,0,-1.0102,-1.013,-1.0149,-1.0187,-1.0204,-1.0238,-1.0272,-1.0284,-1.0301,-1.0333,-1.0356,-1.0383,-1.0408,-1.0453,-1.0483,-1.0488,-1.0505,-1.0493,-1.0493,-1.0498,-1.0557,-1.0556,-1.0479,-1.0479,-1.0479,-1.0479,-1.0479,-1.0479,-1.0065,-1.0072,-1.01,-1.0121,-1.015,-1.017,-1.0186,-1.021,-1.0236,-1.0264,-1.0285,-1.0314,-1.0352,-1.0385,-1.041,-1.0423,-1.0431,-1.0413,-1.0431,-1.0485,-1.0494,-1.0503,-1.0502,-1.0415,-1.0415,-1.0371,-1.037,-1.037]}]]